| time (UTC) | temp F | wind direction | speed MPH | gust MPH | rain 1hr in | rain 24hr in | rain mn in | humidity % | barometer mb |
| 20260505041544 | 68 | 209 | 6.0 | 18.0 | 0.00 | 0.00 | 0.00 | 55 | 1002.2 |
| 20260505041029 | 68 | 211 | 5.0 | 16.0 | 0.00 | 0.00 | 0.00 | 55 | 1002.3 |
| 20260505040530 | 68 | 178 | 6.0 | 16.0 | 0.00 | 0.00 | 0.00 | 55 | 1002.3 |
| 20260505040046 | 68 | 192 | 6.0 | 11.0 | 0.00 | 0.00 | 0.00 | 54 | 1002.3 |
| 20260505035605 | 68 | 211 | 5.0 | 11.0 | 0.00 | 0.00 | 0.00 | 55 | 1002.4 |
| 20260505035133 | 68 | 173 | 5.0 | 14.0 | 0.00 | 0.00 | 0.00 | 55 | 1002.4 |
| 20260505034543 | 68 | 192 | 6.0 | 14.0 | 0.00 | 0.00 | 0.00 | 55 | 1002.4 |
| 20260505033518 | 68 | 225 | 7.0 | 14.0 | 0.00 | 0.00 | 0.00 | 55 | 1002.4 |
| 20260505033031 | 68 | 182 | 7.0 | 11.0 | 0.00 | 0.00 | 0.00 | 55 | 1002.4 |
| 20260505032548 | 68 | 194 | 5.0 | 12.0 | 0.00 | 0.00 | 0.00 | 55 | 1002.3 |
| 20260505032104 | 68 | 230 | 4.0 | 8.0 | 0.00 | 0.00 | 0.00 | 55 | 1002.3 |
| 20260505031031 | 67 | 222 | 4.0 | 7.0 | 0.00 | 0.00 | 0.00 | 55 | 1002.2 |
| 20260505030551 | 67 | 210 | 4.0 | 9.0 | 0.00 | 0.00 | 0.00 | 55 | 1002.2 |
| 20260505025604 | 67 | 203 | 4.0 | 10.0 | 0.00 | 0.00 | 0.00 | 55 | 1002.1 |
| 20260505025108 | 67 | 205 | 3.0 | 10.0 | 0.00 | 0.00 | 0.00 | 55 | 1002.1 |
| 20260505024608 | 67 | 211 | 4.0 | 10.0 | 0.00 | 0.00 | 0.00 | 55 | 1002.1 |
| 20260505024111 | 67 | 238 | 3.0 | 10.0 | 0.00 | 0.00 | 0.00 | 55 | 1002.1 |
| 20260505023540 | 68 | 196 | 3.0 | 10.0 | 0.00 | 0.00 | 0.00 | 54 | 1002.1 |
| 20260505023037 | 68 | 189 | 4.0 | 10.0 | 0.00 | 0.00 | 0.00 | 54 | 1002.1 |
| 20260505022032 | 68 | 182 | 5.0 | 8.0 | 0.00 | 0.00 | 0.00 | 54 | 1002.1 |
| 20260505021549 | 68 | 184 | 4.0 | 9.0 | 0.00 | 0.00 | 0.00 | 55 | 1002.1 |
| 20260505021059 | 68 | 180 | 4.0 | 9.0 | 0.00 | 0.00 | 0.00 | 55 | 1002.1 |
| 20260505020621 | 68 | 229 | 4.0 | 8.0 | 0.00 | 0.00 | 0.00 | 55 | 1002.1 |
| 20260505020105 | 68 | 180 | 2.0 | 7.0 | 0.00 | 0.00 | 0.00 | 55 | 1002.1 |
| 20260505015528 | 68 | 212 | 3.0 | 10.0 | 0.00 | 0.00 | 0.00 | 55 | 1002.1 |
| 20260505015036 | 67 | 224 | 3.0 | 7.0 | 0.00 | 0.00 | 0.00 | 55 | 1002.1 |
| 20260505014522 | 67 | 175 | 2.0 | 6.0 | 0.00 | 0.00 | 0.00 | 55 | 1002.1 |
| 20260505014023 | 67 | 229 | 3.0 | 6.0 | 0.00 | 0.00 | 0.00 | 56 | 1001.7 |
| 20260505013523 | 67 | 196 | 2.0 | 5.0 | 0.00 | 0.00 | 0.00 | 56 | 1001.7 |
| 20260505013040 | 67 | 219 | 1.0 | 4.0 | 0.00 | 0.00 | 0.00 | 55 | 1001.7 |
| 20260505012522 | 67 | 200 | 2.0 | 6.0 | 0.00 | 0.00 | 0.00 | 55 | 1001.6 |
| 20260505012038 | 67 | 200 | 1.0 | 6.0 | 0.00 | 0.00 | 0.00 | 55 | 1001.6 |
| 20260505011034 | 67 | 195 | 1.0 | 7.0 | 0.00 | 0.00 | 0.00 | 55 | 1001.6 |
| 20260505010556 | 67 | 202 | 2.0 | 5.0 | 0.00 | 0.00 | 0.00 | 55 | 1001.6 |
| 20260505005523 | 67 | 197 | 0.0 | 5.0 | 0.00 | 0.00 | 0.00 | 54 | 1001.7 |
| 20260505005042 | 67 | 201 | 2.0 | 7.0 | 0.00 | 0.00 | 0.00 | 54 | 1001.7 |
| 20260505004022 | 68 | 188 | 3.0 | 7.0 | 0.00 | 0.00 | 0.00 | 53 | 1001.7 |
| 20260505003529 | 68 | 203 | 3.0 | 7.0 | 0.00 | 0.00 | 0.00 | 52 | 1001.7 |
| 20260505002522 | 69 | 193 | 3.0 | 7.0 | 0.00 | 0.00 | 0.00 | 51 | 1001.6 |
| 20260505001521 | 69 | 211 | 3.0 | 7.0 | 0.00 | 0.00 | 0.00 | 50 | 1001.6 |
| 20260505001041 | 69 | 212 | 4.0 | 10.0 | 0.00 | 0.00 | 0.00 | 50 | 1001.7 |
| 20260505000602 | 69 | 203 | 6.0 | 10.0 | 0.00 | 0.00 | 0.00 | 50 | 1001.7 |
| 20260505000042 | 70 | 188 | 3.0 | 8.0 | 0.00 | 0.00 | 0.00 | 50 | 1001.7 |
| 20260504235026 | 70 | 216 | 3.0 | 8.0 | 0.00 | 0.00 | 0.00 | 51 | 1001.9 |
| 20260504234534 | 70 | 220 | 3.0 | 10.0 | 0.00 | 0.00 | 0.00 | 50 | 1001.9 |
| 20260504234058 | 70 | 215 | 4.0 | 10.0 | 0.00 | 0.00 | 0.00 | 50 | 1001.8 |
| 20260504233613 | 70 | 173 | 5.0 | 10.0 | 0.00 | 0.00 | 0.00 | 50 | 1001.8 |
| 20260504233111 | 70 | 212 | 4.0 | 10.0 | 0.00 | 0.00 | 0.00 | 50 | 1001.8 |
| 20260504232031 | 70 | 203 | 3.0 | 10.0 | 0.00 | 0.00 | 0.00 | 50 | 1002.1 |
| 20260504231556 | 70 | 225 | 4.0 | 11.0 | 0.00 | 0.00 | 0.00 | 50 | 1002.1 |
| 20260504230533 | 70 | 184 | 5.0 | 12.0 | 0.00 | 0.00 | 0.00 | 49 | 1002.0 |
| 20260504230058 | 71 | 245 | 6.0 | 12.0 | 0.00 | 0.00 | 0.00 | 49 | 1002.0 |
| 20260504225032 | 70 | 200 | 7.0 | 17.0 | 0.00 | 0.00 | 0.00 | 48 | 1002.3 |
| 20260504224549 | 70 | 196 | 8.0 | 15.0 | 0.00 | 0.00 | 0.00 | 50 | 1002.3 |
| 20260504223542 | 70 | 197 | 6.0 | 10.0 | 0.00 | 0.00 | 0.00 | 50 | 1002.6 |
| 20260504222522 | 71 | 246 | 5.0 | 18.0 | 0.00 | 0.00 | 0.00 | 50 | 1002.6 |
| 20260504222051 | 71 | 184 | 4.0 | 12.0 | 0.00 | 0.00 | 0.00 | 50 | 1002.6 |
| 20260504221048 | 71 | 186 | 9.0 | 17.0 | 0.00 | 0.00 | 0.00 | 48 | 1002.5 |
| 20260504220600 | 71 | 244 | 6.0 | 15.0 | 0.00 | 0.00 | 0.00 | 49 | 1002.5 |
| 20260504215540 | 72 | 196 | 9.0 | 22.0 | 0.00 | 0.00 | 0.00 | 46 | 1002.6 |
| 20260504215100 | 72 | 221 | 5.0 | 16.0 | 0.00 | 0.00 | 0.00 | 46 | 1002.6 |
| 20260504214536 | 72 | 265 | 4.0 | 15.0 | 0.00 | 0.00 | 0.00 | 46 | 1002.6 |
| 20260504214046 | 72 | 178 | 6.0 | 20.0 | 0.00 | 0.00 | 0.00 | 46 | 1002.5 |
| 20260504213554 | 73 | 190 | 6.0 | 20.0 | 0.00 | 0.00 | 0.00 | 45 | 1002.5 |
| 20260504212542 | 73 | 188 | 6.0 | 21.0 | 0.00 | 0.00 | 0.00 | 45 | 1002.5 |
| 20260504212054 | 73 | 271 | 5.0 | 21.0 | 0.00 | 0.00 | 0.00 | 46 | 1002.5 |
| 20260504211020 | 72 | 227 | 8.0 | 16.0 | 0.00 | 0.00 | 0.00 | 47 | 1002.4 |
| 20260504210135 | 72 | 194 | 6.0 | 14.0 | 0.00 | 0.00 | 0.00 | 48 | 1002.4 |
| 20260504205519 | 72 | 216 | 5.0 | 18.0 | 0.00 | 0.00 | 0.00 | 49 | 1002.8 |
| 20260504205025 | 72 | 175 | 8.0 | 18.0 | 0.00 | 0.00 | 0.00 | 48 | 1002.8 |
| 20260504204026 | 72 | 219 | 9.0 | 20.0 | 0.00 | 0.00 | 0.00 | 50 | 1003.2 |
| 20260504203547 | 72 | 213 | 10.0 | 20.0 | 0.00 | 0.00 | 0.00 | 50 | 1003.2 |
| 20260504202527 | 71 | 230 | 5.0 | 19.0 | 0.00 | 0.00 | 0.00 | 51 | 1003.2 |
| 20260504202030 | 71 | 169 | 10.0 | 19.0 | 0.00 | 0.00 | 0.00 | 50 | 1003.2 |
| 20260504201546 | 71 | 201 | 5.0 | 18.0 | 0.00 | 0.00 | 0.00 | 50 | 1003.2 |
| 20260504200614 | 72 | 255 | 11.0 | 21.0 | 0.00 | 0.00 | 0.00 | 49 | 1003.5 |
| 20260504200123 | 72 | 198 | 8.0 | 22.0 | 0.00 | 0.00 | 0.00 | 49 | 1003.5 |
| 20260504195607 | 73 | 204 | 8.0 | 21.0 | 0.00 | 0.00 | 0.00 | 48 | 1003.5 |
| 20260504195116 | 73 | 188 | 11.0 | 21.0 | 0.00 | 0.00 | 0.00 | 48 | 1003.5 |
| 20260504194519 | 73 | 200 | 7.0 | 22.0 | 0.00 | 0.00 | 0.00 | 49 | 1003.5 |
| 20260504194042 | 73 | 194 | 7.0 | 17.0 | 0.00 | 0.00 | 0.00 | 48 | 1003.2 |
| 20260504193551 | 73 | 223 | 9.0 | 16.0 | 0.00 | 0.00 | 0.00 | 48 | 1003.2 |
| 20260504193057 | 73 | 175 | 6.0 | 20.0 | 0.00 | 0.00 | 0.00 | 48 | 1003.2 |
| 20260504192039 | 73 | 195 | 9.0 | 22.0 | 0.00 | 0.00 | 0.00 | 48 | 1003.2 |
| 20260504191040 | 73 | 190 | 10.0 | 17.0 | 0.00 | 0.00 | 0.00 | 48 | 1003.2 |
| 20260504190027 | 73 | 205 | 8.0 | 17.0 | 0.00 | 0.00 | 0.00 | 49 | 1003.2 |
| 20260504185535 | 72 | 257 | 6.0 | 17.0 | 0.00 | 0.00 | 0.00 | 50 | 1003.2 |
| 20260504184531 | 71 | 161 | 6.0 | 17.0 | 0.00 | 0.00 | 0.00 | 50 | 1003.2 |
| 20260504184052 | 71 | 224 | 9.0 | 17.0 | 0.00 | 0.00 | 0.00 | 50 | 1003.3 |
| 20260504183545 | 72 | 254 | 7.0 | 13.0 | 0.00 | 0.00 | 0.00 | 49 | 1003.3 |
| 20260504183037 | 72 | 213 | 4.0 | 15.0 | 0.00 | 0.00 | 0.00 | 50 | 1003.3 |
| 20260504182555 | 72 | 250 | 6.0 | 15.0 | 0.00 | 0.00 | 0.00 | 52 | 1003.5 |
| 20260504181534 | 71 | 196 | 5.0 | 18.0 | 0.00 | 0.00 | 0.00 | 51 | 1003.5 |
| 20260504181053 | 71 | 200 | 5.0 | 18.0 | 0.00 | 0.00 | 0.00 | 51 | 1003.6 |
| 20260504180031 | 71 | 228 | 7.0 | 18.0 | 0.00 | 0.00 | 0.00 | 52 | 1003.6 |
| 20260504175039 | 70 | 247 | 6.0 | 17.0 | 0.00 | 0.00 | 0.00 | 51 | 1003.7 |
| 20260504174557 | 70 | 229 | 6.0 | 15.0 | 0.00 | 0.00 | 0.00 | 52 | 1003.7 |
| 20260504174105 | 70 | 234 | 5.0 | 14.0 | 0.00 | 0.00 | 0.00 | 53 | 1003.8 |
| 20260504173613 | 70 | 211 | 5.0 | 15.0 | 0.00 | 0.00 | 0.00 | 53 | 1003.8 |
| 20260504173026 | 69 | 252 | 5.0 | 15.0 | 0.00 | 0.00 | 0.00 | 54 | 1003.8 |
| 20260504172538 | 69 | 219 | 6.0 | 8.0 | 0.00 | 0.00 | 0.00 | 54 | 1004.0 |
| 20260504171527 | 69 | 186 | 7.0 | 13.0 | 0.00 | 0.00 | 0.00 | 54 | 1004.0 |
| 20260504171044 | 69 | 200 | 6.0 | 10.0 | 0.00 | 0.00 | 0.00 | 55 | 1004.2 |
| 20260504151047 | 63 | 198 | 5.0 | 13.0 | 0.00 | 0.00 | 0.00 | 60 | 1005.2 |
| 20260504150555 | 63 | 167 | 3.0 | 12.0 | 0.00 | 0.00 | 0.00 | 60 | 1005.2 |
| 20260504140528 | 60 | 186 | 5.0 | 12.0 | 0.00 | 0.00 | 0.00 | 61 | 1005.5 |
| 20260504130530 | 56 | 214 | 4.0 | 11.0 | 0.00 | 0.00 | 0.00 | 63 | 1005.8 |
| 20260504120125 | 50 | 208 | 3.0 | 9.0 | 0.00 | 0.00 | 0.00 | 67 | 1006.1 |
| 20260504110535 | 47 | 162 | 2.0 | 4.0 | 0.00 | 0.00 | 0.00 | 69 | 1005.7 |
| 20260504081550 | 51 | 198 | 3.0 | 6.0 | 0.00 | 0.00 | 0.00 | 62 | 1006.8 |
| 20260504081054 | 51 | 179 | 2.0 | 6.0 | 0.00 | 0.00 | 0.00 | 62 | 1006.9 |
| 20260504080612 | 51 | 199 | 2.0 | 5.0 | 0.00 | 0.00 | 0.00 | 62 | 1006.9 |
| 20260504050522 | 52 | 188 | 3.0 | 4.0 | 0.00 | 0.00 | 0.00 | 60 | 1008.7 |
| 20260504050018 | 52 | 188 | 2.0 | 4.0 | 0.00 | 0.00 | 0.00 | 61 | 1008.7 |
| 20260504045556 | 51 | 188 | 1.0 | 4.0 | 0.00 | 0.00 | 0.00 | 61 | 1008.7 |
| 20260504045023 | 51 | 188 | 2.0 | 3.0 | 0.00 | 0.00 | 0.00 | 62 | 1008.7 |
| 20260504044524 | 51 | 188 | 1.0 | 2.0 | 0.00 | 0.00 | 0.00 | 63 | 1008.7 |
| 20260504044047 | 51 | 188 | 1.0 | 6.0 | 0.00 | 0.00 | 0.00 | 63 | 1008.9 |
| 20260504043537 | 51 | 188 | 3.0 | 6.0 | 0.00 | 0.00 | 0.00 | 63 | 1008.9 |